STARLINK-1366, 45569

Orbit data source: Space-Track

STARLINK-1366, 45569 is a payload satellite owned by SpaceX/Seattle (US) in LEO that was launched on Wed, 22 Apr 2020 UTC via an FALCON 9 launch vehicle from the Air Force Eastern Test Range (AFETR). Payload-class satellites include a variety of spacecraft equipped with specific instruments for various scientific and technological missions. These include communications satellites like Starlink; space stations such as the ISS; scientific satellites like the Hubble; Earth observation satellites from companies like Planet Labs, Umbra, and HawkEye 360; GPS; miniature CubeSats for education and research; and military/defense satellites.

Loading next visibility...
Identifier
45569, 2020-025AQ
Orbit
LEO
Country
Flag of USUS
Related business
Manufacturer
SpaceX/Seattle
Mission
Partially operational Commercial Communications
Bus & Motor
STARLINK, Unknown motor
Mass
260 kg wet, ~248 kg dry
Launch date (UTC)
2020-04-22 (6 years ago)
Launch vehicle
FALCON 9
Launch site
Air Force Eastern Test Range (AFETR)
Object type
Payload
Rocket body
Debris
Shape & HBR
Box + 1 Pan, 10.1 m
Radar Cross Section
13.562 m², Large (>1 m²)

Expand to show TLE details & history
Last TLE update: 6 hours ago

TLE from 6 hours ago
0 STARLINK-1366
1 45569U 20025AQ  25297.75002315  .01662947  00000-0  44299-1 0  9990
2 45569  53.0532 335.4423 0001598  76.8989 294.9552 15.34605022  5798
Epoch: 2025-10-24T18:00Z
TLE epoch observation values (Epoch: 2025-10-24T18:00:02.000Z)
Latitude
9.41484°
Longitude
39.16759°
Altitude
461.79 km
Speed
7.638 km/s
True Right ascension
22h 50m 15s
True Declination
9° 21' 26"
Sunlit
Object was in full shadow at epoch
Visualization orbit readout
Latitude
Unknown
Longitude
Unknown
Altitude
Unknown
Speed
Unknown
Apparent Right ascension
Unknown
Apparent Declination
Unknown
Sunlit
N/A
Visualization observer readout
Local Sidereal Time
18:46:10
Azimuth
Unknown
Elevation
Unknown
Doppler factor
Unknown
Orbital elements
Apogee altitude
463.461 km
Perigee altitude
461.275 km
Semi-major axis
6,840.505 km
Eccentricity
0.00016
Inclination
53.0532°
RAAN
335.4423°
Arg. of periapsis
76.8989°
True anomaly
294.9386°
Mean anomaly
294.9552°
Eccentric anomaly
294.9469°
Mean motion
3.83629 °/min
Orbital period
93.84 mins
BSTAR
0.044299
Loading maneuver chart data...
Computing Atmospheric mass density...
Loading historical data...
Loading historical data...
Loading historical data...
Loading historical data...
Loading historical data...
Loading historical data...
Loading historical data...

Documentation

Showing up to 5 results
|